This demonstration page uses our WeatherBlox Daily Observations layout. Learn more.

Left ArrowRight Arrow

Hourly Observations for September 1, 2021

Temp ( °F °C ) Dew Point ( °F °C ) Humidity (%) Winds ( mph kmh ) Pressure ( in mb ) Visibility ( mi km ) Precip ( " mm )
12:53 am 00:53 Clear 82 27.8 63 17.2 53 53 SE 12 19 29.67 1005 10 16 0.00 0.00
1:53 am 01:53 Clear 80 26.7 63 17.2 56 56 SE 9 15 29.67 1005 10 16 0.00 0.00
2:53 am 02:53 Clear 78 25.6 63 17.2 60 60 SE 9 15 29.66 1004 10 16 0.00 0.00
3:53 am 03:53 Clear 78 25.6 63 17.2 60 60 ESE 9 15 29.67 1005 10 16 0.00 0.00
4:53 am 04:53 Clear 77 25 63 17.2 62 62 SE 9 15 29.66 1004 10 16 0.00 0.00
5:53 am 05:53 Clear 77 25 62 16.7 60 60 ESE 10 17 29.66 1004 10 16 0.00 0.00
6:53 am 06:53 Mostly Cloudy 77 25 62 16.7 60 60 ESE 10 17 29.68 1005 10 16 0.00 0.00
7:53 am 07:53 Sunny 76 24.4 62 16.7 62 62 ESE 12 19 29.70 1006 10 16 0.00 0.00
8:53 am 08:53 Mostly Cloudy 78 25.6 63 17.2 60 60 SE 14 22 29.71 1006 10 16 0.00 0.00
9:53 am 09:53 Partly Cloudy 81 27.2 64 17.8 57 57 SE 18 30 29.72 1007 10 16 0.00 0.00
10:53 am 10:53 Sunny 86 30 64 17.8 48 48 SSE 14 22 29.73 1007 10 16 0.00 0.00
11:53 am 11:53 Sunny 90 32.2 64 17.8 42 42 SE 14 22 29.72 1007 10 16 0.00 0.00
12:53 pm 12:53 Sunny 93 33.9 62 16.7 36 36 SSE 10 17 29.70 1006 10 16 0.00 0.00
1:53 pm 13:53 Sunny 94 34.4 62 16.7 35 35 VRB 6 9 29.68 1005 10 16 0.00 0.00
2:53 pm 14:53 Sunny 97 36.1 62 16.7 32 32 SSE 10 17 29.65 1004 10 16 0.00 0.00
3:53 pm 15:53 Mostly Cloudy 99 37.2 60 15.6 28 28 SSE 18 30 29.62 1003 10 16 0.00 0.00
4:53 pm 16:53 Mostly Cloudy 98 36.7 61 16.1 29 29 SSE 17 28 29.62 1003 10 16 0.00 0.00
5:53 pm 17:53 Cloudy with Light Rain 90 32.2 68 20 48 48 S 24 39 29.63 1003 10 16 0.01 0.25
6:00 pm 18:00 Cloudy with Nearby Thunderstorms 87 30.6 66 18.9 50 50 VRB 6 9 29.57 1001 4 6 0.01 0.25
6:11 pm 18:11 Partly Cloudy with Thunderstorms 90 32.2 70 21.1 52 52 SE 15 24 29.56 1001 10 16 0.02 0.51
6:25 pm 18:25 Partly Cloudy with Nearby Thunderstorms 88 31.1 65 18.3 46 46 E 14 22 29.57 1002 10 16 0.02 0.51
6:53 pm 18:53 Sunny 90 32.2 63 17.2 41 41 E 7 11 29.63 1003 10 16 0.02 0.51
7:53 pm 19:53 Sunny 91 32.8 64 17.8 41 41 S 6 9 29.65 1004 10 16 0.00 0.00
8:53 pm 20:53 Partly Cloudy 87 30.6 63 17.2 45 45 SSW 8 13 29.68 1005 10 16 0.00 0.00
9:53 pm 21:53 Partly Cloudy 85 29.4 64 17.8 50 50 Calm 29.69 1006 10 16 0.00 0.00
10:53 pm 22:53 Clear 83 28.3 66 18.9 57 57 SE 5 7 29.70 1006 10 16 0.00 0.00
11:53 pm 23:53 Partly Cloudy 83 28.3 64 17.8 53 53 SSE 7 11 29.71 1006 10 16 0.00 0.00

Powered by AerisWeather